TimeCDT,TemperatureF,Dew PointF,Humidity,Sea Level PressureIn,VisibilityMPH,Wind Direction,Wind SpeedMPH,Gust SpeedMPH,PrecipitationIn,Events,Conditions,WindDirDegrees,DateUTC
12:14 AM,35.6,32.0,87,29.79,2.0,NNW,16.1,-,N/A,Snow,Light Snow,330,2013-03-10 06:14:00
12:35 AM,35.6,32.0,87,29.79,1.5,NW,16.1,-,0.01,Snow,Light Snow,320,2013-03-10 06:35:00
12:55 AM,35.6,32.0,87,29.80,2.5,NNW,16.1,-,0.02,Snow,Light Snow,330,2013-03-10 06:55:00
1:14 AM,35.6,30.2,81,29.79,4.0,NNW,17.3,-,N/A,Snow,Light Snow,330,2013-03-10 07:14:00
1:35 AM,35.6,30.2,81,29.82,4.0,NW,13.8,-,N/A,Snow,Light Snow,320,2013-03-10 07:35:00
1:55 AM,35.6,30.2,81,29.81,5.0,NW,19.6,-,N/A,Snow,Light Snow,320,2013-03-10 07:55:00
3:14 AM,35.6,30.2,81,29.81,2.0,NNW,16.1,-,0.01,Snow,Light Snow,330,2013-03-10 08:14:00
3:35 AM,35.6,30.2,81,29.81,4.0,NW,15.0,-,0.01,Snow,Light Snow,320,2013-03-10 08:35:00
3:55 AM,35.6,30.2,81,29.80,3.0,NW,15.0,-,0.01,Snow,Light Snow,320,2013-03-10 08:55:00
4:14 AM,35.6,30.2,81,29.78,3.0,NW,18.4,-,N/A,Snow,Light Snow,320,2013-03-10 09:14:00
4:35 AM,35.6,30.2,81,29.80,4.0,NNW,17.3,23.0,N/A,Snow,Light Snow,330,2013-03-10 09:35:00
4:55 AM,35.6,30.2,81,29.82,7.0,NNW,16.1,23.0,N/A,,Overcast,330,2013-03-10 09:55:00
5:14 AM,35.6,30.2,81,29.83,7.0,NW,20.7,25.3,N/A,,Overcast,320,2013-03-10 10:14:00
5:35 AM,35.6,30.2,81,29.84,5.0,NW,15.0,19.6,N/A,Snow,Light Snow,310,2013-03-10 10:35:00
5:55 AM,33.8,28.4,81,29.84,4.0,NW,20.7,26.5,N/A,Snow,Light Snow,310,2013-03-10 10:55:00
6:14 AM,33.8,28.4,81,29.88,5.0,NW,18.4,26.5,N/A,Snow,Light Snow,310,2013-03-10 11:14:00
6:35 AM,33.8,28.4,81,29.86,3.0,NW,21.9,26.5,N/A,Snow,Light Snow,320,2013-03-10 11:35:00
7:35 AM,32.0,26.6,80,29.87,4.0,NW,19.6,25.3,N/A,Snow,Light Snow,320,2013-03-10 12:35:00
7:54 AM,32.0,26.6,80,29.93,5.0,WNW,18.4,-,N/A,,Haze,300,2013-03-10 12:54:00
8:15 AM,32.0,26.6,80,29.92,5.0,NW,19.6,-,N/A,,Overcast,320,2013-03-10 13:15:00
8:35 AM,32.0,26.6,80,29.93,5.0,NW,18.4,26.5,N/A,,Haze,320,2013-03-10 13:35:00
8:55 AM,33.8,28.4,81,29.92,4.0,NW,20.7,25.3,N/A,,Haze,320,2013-03-10 13:55:00
9:15 AM,33.8,28.4,81,29.90,4.0,NNW,23.0,31.1,N/A,,Haze,330,2013-03-10 14:15:00
9:35 AM,33.8,26.6,75,29.93,4.0,NNW,20.7,27.6,N/A,,Haze,330,2013-03-10 14:35:00
9:55 AM,32.0,26.6,80,29.92,4.0,NNW,21.9,32.2,N/A,,Haze,330,2013-03-10 14:55:00
10:15 AM,32.0,26.6,80,29.93,5.0,NNW,21.9,31.1,N/A,,Haze,340,2013-03-10 15:15:00
10:35 AM,32.0,26.6,80,29.94,5.0,NNW,20.7,27.6,N/A,,Haze,340,2013-03-10 15:35:00
10:55 AM,32.0,26.6,80,29.93,5.0,NNW,23.0,29.9,N/A,,Haze,330,2013-03-10 15:55:00
11:15 AM,32.0,26.6,80,29.92,4.0,NNW,25.3,31.1,N/A,,Haze,340,2013-03-10 16:15:00
11:35 AM,32.0,26.6,80,29.94,5.0,NNW,21.9,29.9,N/A,,Haze,340,2013-03-10 16:35:00
11:55 AM,32.0,26.6,80,29.95,5.0,NNW,20.7,29.9,N/A,,Haze,340,2013-03-10 16:55:00
12:14 PM,32.0,26.6,80,29.94,5.0,NNW,18.4,27.6,N/A,,Haze,340,2013-03-10 17:14:00
12:35 PM,32.0,26.6,80,29.93,5.0,NNW,19.6,26.5,N/A,,Haze,340,2013-03-10 17:35:00
12:55 PM,32.0,26.6,80,29.91,7.0,NNW,23.0,27.6,N/A,,Overcast,340,2013-03-10 17:55:00
1:14 PM,32.0,26.6,80,29.92,7.0,NNW,19.6,27.6,N/A,,Overcast,340,2013-03-10 18:14:00
1:35 PM,32.0,26.6,80,29.92,7.0,NNW,19.6,28.8,N/A,,Overcast,330,2013-03-10 18:35:00
1:55 PM,32.0,26.6,80,29.92,7.0,NNW,21.9,26.5,N/A,,Overcast,330,2013-03-10 18:55:00
2:15 PM,32.0,26.6,80,29.92,7.0,NNW,21.9,27.6,N/A,,Overcast,330,2013-03-10 19:15:00
2:35 PM,32.0,26.6,80,29.91,7.0,NNW,19.6,-,N/A,,Overcast,330,2013-03-10 19:35:00
2:54 PM,33.8,26.6,75,29.91,7.0,NNW,21.9,26.5,N/A,,Overcast,330,2013-03-10 19:54:00
3:15 PM,33.8,26.6,75,29.89,10.0,NNW,21.9,27.6,N/A,,Overcast,340,2013-03-10 20:15:00
3:35 PM,33.8,24.8,70,29.88,10.0,NNW,20.7,29.9,N/A,,Overcast,340,2013-03-10 20:35:00
3:54 PM,33.8,24.8,70,29.88,10.0,North,26.5,33.4,N/A,,Overcast,350,2013-03-10 20:54:00
4:15 PM,33.8,24.8,70,29.88,10.0,NNW,20.7,33.4,N/A,,Overcast,340,2013-03-10 21:15:00
4:35 PM,33.8,24.8,70,29.88,10.0,NNW,27.6,32.2,N/A,,Overcast,340,2013-03-10 21:35:00
4:55 PM,33.8,24.8,70,29.88,10.0,NNW,20.7,28.8,N/A,,Overcast,340,2013-03-10 21:55:00
5:15 PM,33.8,24.8,70,29.89,10.0,NNW,23.0,33.4,N/A,,Overcast,340,2013-03-10 22:15:00
5:35 PM,33.8,24.8,70,29.89,10.0,NNW,20.7,29.9,N/A,,Overcast,340,2013-03-10 22:35:00
5:55 PM,33.8,24.8,70,29.90,10.0,NNW,21.9,29.9,N/A,,Overcast,340,2013-03-10 22:55:00
6:15 PM,32.0,24.8,75,29.90,10.0,NNW,20.7,27.6,N/A,,Overcast,340,2013-03-10 23:15:00
6:35 PM,32.0,23.0,69,29.91,10.0,NNW,21.9,28.8,N/A,,Overcast,340,2013-03-10 23:35:00
6:55 PM,32.0,24.8,75,29.90,10.0,NNW,20.7,27.6,N/A,,Overcast,330,2013-03-10 23:55:00
7:15 PM,32.0,23.0,69,29.91,10.0,NNW,19.6,31.1,N/A,Snow,Light Snow,340,2013-03-11 00:15:00
7:35 PM,32.0,24.8,75,29.92,10.0,NNW,17.3,23.0,N/A,,Overcast,340,2013-03-11 00:35:00
7:54 PM,32.0,23.0,69,29.93,10.0,NNW,18.4,-,N/A,,Overcast,340,2013-03-11 00:54:00
8:15 PM,32.0,23.0,69,29.93,10.0,NNW,16.1,23.0,N/A,,Overcast,340,2013-03-11 01:15:00
8:35 PM,32.0,23.0,69,29.93,10.0,NNW,16.1,25.3,N/A,,Overcast,330,2013-03-11 01:35:00
9:15 PM,30.2,24.8,80,29.92,2.5,NNW,20.7,25.3,N/A,Snow,Light Snow,330,2013-03-11 02:15:00
9:35 PM,30.2,24.8,80,29.92,2.0,NNW,20.7,27.6,N/A,Snow,Light Snow,330,2013-03-11 02:35:00
9:55 PM,30.2,24.8,80,29.91,2.0,NNW,21.9,-,N/A,Snow,Light Snow,330,2013-03-11 02:55:00
10:15 PM,30.2,24.8,80,29.90,2.5,NNW,21.9,28.8,N/A,Snow,Light Snow,330,2013-03-11 03:15:00
10:35 PM,30.2,23.0,75,29.89,5.0,NW,24.2,29.9,N/A,Snow,Light Snow,320,2013-03-11 03:35:00
10:54 PM,30.2,23.0,75,29.89,7.0,NNW,27.6,31.1,N/A,,Overcast,330,2013-03-11 03:54:00
11:15 PM,30.2,23.0,75,29.89,10.0,NNW,24.2,31.1,N/A,,Overcast,330,2013-03-11 04:15:00
11:35 PM,30.2,23.0,75,29.89,10.0,NW,20.7,-,N/A,,Overcast,320,2013-03-11 04:35:00
11:54 PM,30.2,21.2,69,29.89,10.0,NNW,24.2,-,N/A,,Overcast,330,2013-03-11 04:54:00
12:15 AM,30.2,21.2,69,29.89,10.0,NNW,21.9,27.6,N/A,,Overcast,330,2013-03-11 05:15:00
12:35 AM,30.2,21.2,69,29.89,10.0,NW,24.2,27.6,N/A,,Overcast,320,2013-03-11 05:35:00
12:54 AM,30.2,21.2,69,29.88,10.0,NW,19.6,29.9,N/A,,Overcast,320,2013-03-11 05:54:00